Idabel, OK

4:34 AM CST on December 16, 2017 (GMT -0600)
Idabel

Weather History for K4O4 - October, 2011

Change the Weather History Date:

Thursday, October 27, 2011

  Actual Average (KPRX) Record (KPRX)
Temperature  
Mean Temperature 58 °F -  
Max Temperature 64 °F 70 °F 86 °F (2016)
Min Temperature 50 °F 52 °F 33 °F (2012)
Degree Days  
Heating Degree Days 8    
Growing Degree Days 8 (Base 50)    
Moisture  
Dew Point 48 °F    
Average Humidity 77    
Maximum Humidity 88    
Minimum Humidity 71    
Precipitation  
Precipitation 0.00 in - - ()
Sea Level Pressure  
Sea Level Pressure 29.96 in    
Wind  
Wind Speed 8 mph (NNE)    
Max Wind Speed 17 mph    
Max Gust Speed 24 mph    
Visibility 10 miles    
Events      
Averages and records for this station are not official NWS values.
T = Trace of Precipitation, MM = Missing Value Source: NWS Daily Summary

Daily Weather History Graph

Daily Weather History Graph

Search for Another Location

Airport or City:

Trip Planner

Search our weather history database for the weather conditions in past years. The results will help you decide how hot, cold, wet, or windy it might be!

Date:

Astronomy

Oct. 27, 2011 Rise Set
Actual Time 7:34 AM CDT 6:31 PM CDT
Civil Twilight 7:08 AM CDT 6:57 PM CDT
Nautical Twilight 6:39 AM CDT 7:26 PM CDT
Astronomical Twilight 6:10 AM CDT 7:55 PM CDT
Moon 8:32 AM CDT (10/27) 7:08 PM CDT (10/27)
Length of Visible Light 11h 48m
Length of Day
10h 57m
New Moon, 1% of the Moon is Illuminated
Oct 27
New Moon
Nov 2
First Quarter
Nov 10
Full
Nov 18
Last Quarter
Nov 25
New

Hourly Weather History & Observations

Time (CDT) Temp. Windchill Dew Point Humidity Pressure Visibility Wind Dir Wind Speed Gust Speed Precip Events Conditions
12:35 AM 64.4 °F - 55.4 °F 73% 29.86 in 10.0 mi WNW 3.5 mph - N/A   Scattered Clouds
12:55 AM 64.4 °F - 55.4 °F 73% 29.86 in 10.0 mi NW 3.5 mph - N/A   Clear
1:15 AM 62.6 °F - 55.4 °F 77% 29.86 in 10.0 mi NW 5.8 mph - N/A   Clear
1:35 AM 62.6 °F - 53.6 °F 72% 29.86 in 10.0 mi NW 6.9 mph - N/A   Clear
1:55 AM 60.8 °F - 53.6 °F 77% 29.86 in 10.0 mi NW 6.9 mph - N/A   Clear
2:35 AM 60.8 °F - 53.6 °F 77% 29.86 in 10.0 mi NNW 6.9 mph - N/A   Clear
2:55 AM 59.0 °F - 53.6 °F 82% 29.85 in 10.0 mi NNW 5.8 mph - N/A   Clear
3:15 AM 59.0 °F - 51.8 °F 77% 29.86 in 10.0 mi NW 4.6 mph - N/A   Clear
3:35 AM 59.0 °F - 51.8 °F 77% 29.86 in 10.0 mi NW 4.6 mph - N/A   Clear
3:55 AM 57.2 °F - 51.8 °F 82% 29.86 in 10.0 mi NNW 5.8 mph - N/A   Clear
4:15 AM 57.2 °F - 51.8 °F 82% 29.85 in 10.0 mi NNW 3.5 mph - N/A   Clear
5:35 AM 55.4 °F - 51.8 °F 88% 29.89 in 10.0 mi NW 9.2 mph - N/A   Scattered Clouds
6:15 AM 55.4 °F - 50.0 °F 82% 29.90 in 10.0 mi NW 9.2 mph - N/A   Scattered Clouds
6:35 AM 55.4 °F - 50.0 °F 82% 29.92 in 10.0 mi NW 11.5 mph 19.6 mph N/A   Scattered Clouds
6:55 AM 55.4 °F - 48.2 °F 77% 29.93 in 10.0 mi NNW 17.3 mph 24.2 mph N/A   Mostly Cloudy
7:15 AM 55.4 °F - 48.2 °F 77% 29.94 in 10.0 mi North 15.0 mph 21.9 mph N/A   Mostly Cloudy
7:35 AM 55.4 °F - 46.4 °F 72% 29.93 in 10.0 mi North 16.1 mph 24.2 mph N/A   Mostly Cloudy
7:55 AM 55.4 °F - 46.4 °F 72% 29.94 in 10.0 mi NNE 15.0 mph 23.0 mph N/A   Mostly Cloudy
8:35 AM 55.4 °F - 46.4 °F 72% 29.97 in 10.0 mi North 8.1 mph - N/A   Overcast
8:55 AM 55.4 °F - 46.4 °F 72% 29.99 in 10.0 mi NNE 9.2 mph 16.1 mph N/A   Overcast
9:15 AM 55.4 °F - 46.4 °F 72% 30.01 in 10.0 mi North 8.1 mph - N/A   Overcast
9:35 AM 55.4 °F - 46.4 °F 72% 29.99 in 10.0 mi NE 9.2 mph - N/A   Mostly Cloudy
9:55 AM 55.4 °F - 46.4 °F 72% 29.99 in 10.0 mi NE 10.4 mph - N/A   Mostly Cloudy
10:15 AM 55.4 °F - 46.4 °F 72% 30.00 in 10.0 mi NE 10.4 mph 16.1 mph N/A   Overcast
10:35 AM 55.4 °F - 46.4 °F 72% 29.99 in 10.0 mi ENE 11.5 mph 20.7 mph N/A   Overcast
11:15 AM 55.4 °F - 46.4 °F 72% 29.99 in 10.0 mi NE 13.8 mph 18.4 mph N/A   Overcast
11:35 AM 55.4 °F - 46.4 °F 72% 30.00 in 10.0 mi NE 11.5 mph 17.3 mph N/A   Overcast
11:55 AM 55.4 °F - 46.4 °F 72% 30.00 in 10.0 mi NE 12.7 mph - N/A   Overcast
12:15 PM 55.4 °F - 46.4 °F 72% 30.04 in 10.0 mi NNE 8.1 mph - N/A   Mostly Cloudy
12:35 PM 53.6 °F - 48.2 °F 82% 30.03 in 10.0 mi NNE 9.2 mph - N/A   Overcast
12:55 PM 53.6 °F - 48.2 °F 82% 30.02 in 10.0 mi NNE 9.2 mph - N/A   Overcast
1:15 PM 53.6 °F - 48.2 °F 82% 30.02 in 10.0 mi NNE 9.2 mph - N/A   Overcast
1:35 PM 53.6 °F - 48.2 °F 82% 29.99 in 10.0 mi ENE 10.4 mph - N/A   Overcast
2:15 PM 53.6 °F - 50.0 °F 88% 30.00 in 10.0 mi NE 9.2 mph - N/A   Overcast
2:55 PM 53.6 °F - 48.2 °F 82% 29.99 in 10.0 mi ENE 11.5 mph 18.4 mph N/A   Overcast
3:35 PM 53.6 °F - 46.4 °F 77% 29.97 in 10.0 mi ENE 9.2 mph - N/A   Overcast
3:55 PM 51.8 °F - 46.4 °F 82% 29.98 in 10.0 mi ENE 9.2 mph - N/A   Overcast
4:15 PM 53.6 °F - 46.4 °F 77% 29.98 in 10.0 mi ENE 10.4 mph - N/A   Overcast
4:55 PM 51.8 °F - 46.4 °F 82% 29.99 in 10.0 mi NE 8.1 mph - N/A   Mostly Cloudy
5:15 PM 51.8 °F - 46.4 °F 82% 29.97 in 10.0 mi ENE 12.7 mph 19.6 mph N/A   Overcast
5:35 PM 51.8 °F - 46.4 °F 82% 29.98 in 10.0 mi NE 10.4 mph - N/A   Overcast
5:55 PM 51.8 °F - 44.6 °F 76% 29.99 in 10.0 mi NE 10.4 mph 17.3 mph N/A   Overcast
6:35 PM 51.8 °F - 44.6 °F 76% 30.01 in 10.0 mi NE 6.9 mph - N/A   Overcast
6:55 PM 51.8 °F - 44.6 °F 76% 30.03 in 10.0 mi NE 6.9 mph - N/A   Mostly Cloudy
7:35 PM 51.8 °F - 44.6 °F 76% 30.02 in 10.0 mi NNE 15.0 mph 19.6 mph N/A   Overcast
7:55 PM 51.8 °F - 44.6 °F 76% 30.02 in 10.0 mi NE 11.5 mph 16.1 mph N/A   Overcast
8:15 PM 51.8 °F - 44.6 °F 76% 30.03 in 10.0 mi NE 8.1 mph 17.3 mph N/A   Mostly Cloudy
8:35 PM 51.8 °F - 44.6 °F 76% 30.04 in 10.0 mi NE 8.1 mph - N/A   Mostly Cloudy
8:55 PM 51.8 °F - 42.8 °F 71% 30.05 in 10.0 mi NNE 10.4 mph 17.3 mph N/A   Overcast
9:35 PM 50.0 °F - 44.6 °F 82% 30.09 in 7.0 mi NNW 6.9 mph - N/A   Overcast
9:55 PM 50.0 °F - 44.6 °F 82% 30.12 in 4.0 mi NW 6.9 mph - N/A   Overcast
10:15 PM 48.2 °F - 44.6 °F 87% 30.11 in 5.0 mi North 10.4 mph - N/A   Overcast
10:35 PM 48.2 °F - 44.6 °F 87% 30.11 in 5.0 mi NNE 10.4 mph - N/A   Scattered Clouds
11:15 PM 46.4 °F 41.9 °F 44.6 °F 93% 30.10 in 10.0 mi NE 9.2 mph - N/A   Clear
11:55 PM 46.4 °F 44.3 °F 44.6 °F 93% 30.10 in 10.0 mi North 4.6 mph - N/A   Mostly Cloudy